Regional Weather Roundup
Issued by NWS

Home | Current Version | Previous Version | Text Only | Print | Product List | Glossary On
Versions: 1 2 3 4 5 6 7 8 9 10 11 12 13 14 15 16 17 18 19 20 21 22 23 24 25 26 27
000
ASUS46 KSEW 171310
RWRWA

WASHINGTON REGIONAL WEATHER ROUNDUP
NATIONAL WEATHER SERVICE SEATTLE WA
500 AM PST TUE JAN 17 2017

NOTE:"FAIR" INDICATES FEW OR NO CLOUDS BELOW 12,000 FEET WITH NO
SIGNIFICANT WEATHER AND/OR OBSTRUCTIONS TO VISIBILITY.

WAZ507-509-555>559-171400-
SEATTLE, TACOMA, EVERETT, AND VICINITY

CITY           SKY/WX    TMP DP  RH WIND       PRES   REMARKS
EVERETT        CLOUDY    42  32  67 E10       29.82F
BOEING FIELD   LGT RAIN  41  36  82 SE9       29.85F
RENTON         LGT RAIN  39  34  82 S5        29.86F
SEATAC AIRPORT LGT RAIN  40  37  89 SE10      29.85F
JBLM-MCCHORD   LGT RAIN  37  37 100 SE6       29.84F
PUYALLUP         N/A     37  37 100 CALM      29.85F
BREMERTON      CLOUDY    39  34  81 CALM      29.87F
JBLM-FT LEWIS  LGT RAIN  38  37  93 E9        29.83F
TACOMA NARROWS LGT RAIN  40  34  79 CALM      29.84F
$$

WAZ001-503-506-510-514-515-171400-
NORTH INTERIOR

CITY           SKY/WX    TMP DP  RH WIND       PRES   REMARKS
BELLINGHAM     CLOUDY    50  35  56 SE14G29   29.73F
FRIDAY HARBOR  CLOUDY    49  32  52 SE5       29.75F
EASTSOUND      CLOUDY    50  32  50 S14       29.73S
PORT ANGELES   CLOUDY    37  37 100 S6        29.71F
EDIZ HOOK      CLOUDY    42  39  91 N6        29.72F
PORT TOWNSEND    N/A     48  32  53 VRB6G17   29.75F
NAS WHIDBEY    CLOUDY    52  30  43 SE25G36   29.77F
ARLINGTON      NOT AVBL
BURLINGTON     CLOUDY    52  32  46 SE16G25   29.76F
$$

WAZ020-022-039-040-504-511-512-171400-
SOUTHWEST INTERIOR

CITY           SKY/WX    TMP DP  RH WIND       PRES   REMARKS
SHELTON        LGT RAIN  41  33  73 N3        29.81F
OLYMPIA        CLOUDY    41  29  62 S13       29.84F
CHEHALIS       CLOUDY    36  28  75 S12       29.86F
KELSO          CLOUDY    29  20  69 SE16G26   29.92F WCI  17
VANCOUVER      CLOUDY    27  18  69 SE8       30.00F
SCAPPOOSE, OR  CLOUDY    28  19  69 S7        29.99F
PORTLAND, OR   CLOUDY    26  17  68 SE16      30.00F WCI  14
$$

WAZ021-516-517-171400-
WASHINGTON COAST

CITY           SKY/WX    TMP DP  RH WIND       PRES   REMARKS
FORKS          LGT RAIN  45  43  93 S12G25    29.69F
HOQUIAM        CLOUDY    44  36  73 NE8       29.78F
ASTORIA, OR    CLOUDY    41  32  70 VRB3      29.84R
$$

WAZ019-023-024-040-567>569-171400-
CASCADE MOUNTAINS AND COLUMBIA GORGE

CITY           SKY/WX    TMP DP  RH WIND       PRES   REMARKS
STAMPEDE PASS  NOT AVBL
TROUTDALE, OR  CLOUDY    25  15  66 E30G38    30.01F WCI   8
THE DALLES, OR MOCLDY    16   9  74 CALM      30.25F
$$

WAZ026-027-041>044-520-521-171400-
EAST SLOPES

CITY           SKY/WX    TMP DP  RH WIND       PRES   REMARKS
OMAK           CLOUDY    20  11  68 S5        30.12F
WENATCHEE      MOCLDY    13   9  84 E9        30.13F
ELLENSBURG     MOCLDY    16   9  74 SE5       30.07F
YAKIMA         MOCLDY    16  10  77 CALM      30.16F HAZE
$$

WAZ028-034-035-171400-
COLUMBIA BASIN

CITY           SKY/WX    TMP DP  RH WIND       PRES   REMARKS
EPHRATA        CLOUDY    11   4  73 E3        30.15F
MOSES LAKE     CLOUDY    11   5  77 CALM      30.17F
PASCO          CLOUDY    10   7  87 E3        30.26F
HERMISTON, OR  CLOUDY     4   0  83 CALM      30.22F
$$

WAZ036>038-171400-
NORTHEAST WASHINGTON

CITY           SKY/WX    TMP DP  RH WIND       PRES   REMARKS
SPOKANE GEIGER MOCLDY    12  10  92 CALM      30.05F
SPOKANE FELTS  CLEAR     13  10  88 CALM      30.10S FOG
FAIRCHILD AFB  CLOUDY    14  13  97 CALM      30.03F
COEURDALENE,ID PTCLDY    12   9  87 CALM      30.06F
DEER PARK      CLOUDY    10   6  84 CALM      30.07F
$$

WAZ029>033-171400-
SOUTHEAST WASHINGTON

CITY           SKY/WX    TMP DP  RH WIND       PRES   REMARKS
PULLMAN        CLOUDY    25  17  72 E22       30.03F WCI  10
LEWISTON, ID   CLOUDY    22  13  68 CALM      30.11F
WALLA WALLA    PTCLDY     5   1  83 CALM      30.17S
PENDLETON, OR  FOG        1   0  95 CALM      30.12F VSB 1/2
$$




USA.gov is the U.S. government's official web portal to all federal, state and local government web resources and services.